Weather History for KCEY - May, 2013

Change the Weather History Date:

Saturday, May 25, 2013

  Actual Average (KPAH) Record (KPAH)
Temperature  
Mean Temperature 60 °F 70 °F  
Max Temperature 75 °F 80 °F 93 °F (2012)
Min Temperature 46 °F 59 °F 43 °F (1992)
Degree Days  
Heating Degree Days 4 1  
Month to date heating degree days 59  
Since 1 July heating degree days 4123  
Cooling Degree Days 0 6  
Month to date cooling degree days 91  
Year to date cooling degree days 133  
Growing Degree Days 10 (Base 50)    
Moisture  
Dew Point 48 °F    
Average Humidity 66    
Maximum Humidity 100    
Minimum Humidity 36    
Precipitation  
Precipitation 0.00 in 0.14 in 3.78 in (1946)
Month to date precipitation 4.06  
Year to date precipitation 20.34  
Snow  
Snow 0.00 in 0.00 in 0.00 in (2002)
Month to date snowfall 0.0  
Since 1 July snowfall 9.1  
Snow Depth -    
Sea Level Pressure  
Sea Level Pressure 30.27 in    
Wind  
Wind Speed 3 mph (ESE)    
Max Wind Speed 9 mph    
Max Gust Speed -    
Visibility 10 miles    
Events      
T = Trace of Precipitation, MM = Missing Value Source: NWS Daily Summary

Daily Weather History Graph

Daily Weather History Graph

Search for Another Location

Airport or City:

Trip Planner

Search our weather history database for the weather conditions in past years. The results will help you decide how hot, cold, wet, or windy it might be!

Date:

Astronomy

May. 25, 2013 Rise Set
Actual Time 5:39 AM CDT 8:02 PM CDT
Civil Twilight 5:09 AM CDT 8:31 PM CDT
Nautical Twilight 4:33 AM CDT 9:08 PM CDT
Astronomical Twilight 3:53 AM CDT 9:48 PM CDT
Moon 8:50 PM CDT (5/25) 6:05 AM CDT (5/25)
Length of Visible Light 15h 22m
Length of Day
14h 22m
Full, 100% of the Moon is Illuminated
May 25
Full
May 31
Last Quarter
Jun 8
New
Jun 16
First Quarter
Jun 23
Full

Hourly Weather History & Observations

Time (CDT) Temp. Windchill Dew Point Humidity Pressure Visibility Wind Dir Wind Speed Gust Speed Precip Events Conditions
12:15 AM 51.8 °F - 48.2 °F 88% 30.30 in 10.0 mi NE 3.5 mph - N/A   Clear
12:35 AM 53.6 °F - 48.2 °F 82% 30.30 in 10.0 mi Calm Calm - N/A   Clear
12:55 AM 51.8 °F - 48.2 °F 88% 30.30 in 10.0 mi Calm Calm - N/A   Clear
1:15 AM 51.8 °F - 48.2 °F 88% 30.29 in 10.0 mi ENE 3.5 mph - N/A   Clear
1:35 AM 48.2 °F - 48.2 °F 100% 30.28 in 10.0 mi Calm Calm - N/A   Clear
1:55 AM 50.0 °F - 48.2 °F 94% 30.28 in 10.0 mi Calm Calm - N/A   Clear
2:15 AM 50.0 °F - 48.2 °F 94% 30.28 in 10.0 mi Calm Calm - N/A   Clear
2:35 AM 48.2 °F - 48.2 °F 100% 30.28 in 10.0 mi Calm Calm - N/A   Clear
2:55 AM 50.0 °F - 48.2 °F 94% 30.28 in 10.0 mi ENE 3.5 mph - N/A   Clear
3:15 AM 48.2 °F - 48.2 °F 100% 30.28 in 10.0 mi Calm Calm - N/A   Clear
3:35 AM 48.2 °F - 48.2 °F 100% 30.29 in 10.0 mi Calm Calm - N/A   Clear
3:55 AM 48.2 °F - 48.2 °F 100% 30.29 in 10.0 mi Calm Calm - N/A   Clear
4:15 AM 48.2 °F - 46.4 °F 93% 30.29 in 10.0 mi East 3.5 mph - N/A   Clear
4:35 AM 46.4 °F 45.2 °F 46.4 °F 100% 30.28 in 10.0 mi East 3.5 mph - N/A   Clear
4:55 AM 46.4 °F - 46.4 °F 100% 30.28 in 10.0 mi Calm Calm - N/A   Clear
5:15 AM 46.4 °F - 46.4 °F 100% 30.28 in 10.0 mi Calm Calm - N/A   Clear
5:35 AM 46.4 °F - 46.4 °F 100% 30.28 in 10.0 mi Calm Calm - N/A   Clear
5:55 AM 46.4 °F - 46.4 °F 100% 30.29 in 10.0 mi Calm Calm - N/A   Clear
6:15 AM 46.4 °F 44.3 °F 46.4 °F 100% 30.30 in 10.0 mi South 4.6 mph - N/A   Clear
6:35 AM 48.2 °F - 48.2 °F 100% 30.32 in 10.0 mi Calm Calm - N/A   Clear
6:55 AM 53.6 °F - 48.2 °F 82% 30.33 in 10.0 mi Calm Calm - N/A   Clear
7:15 AM 53.6 °F - 48.2 °F 82% 30.33 in 10.0 mi Calm Calm - N/A   Clear
7:35 AM 55.4 °F - 48.2 °F 77% 30.33 in 10.0 mi SE 3.5 mph - N/A   Clear
7:55 AM 57.2 °F - 48.2 °F 72% 30.34 in 10.0 mi SE 4.6 mph - N/A   Clear
8:15 AM 59.0 °F - 50.0 °F 72% 30.34 in 10.0 mi ESE 4.6 mph - N/A   Clear
8:35 AM 59.0 °F - 50.0 °F 72% 30.35 in 10.0 mi ESE 4.6 mph - N/A   Clear
8:55 AM 60.8 °F - 48.2 °F 63% 30.35 in 10.0 mi ESE 4.6 mph - N/A   Clear
9:15 AM 62.6 °F - 48.2 °F 59% 30.34 in 10.0 mi ESE 4.6 mph - N/A   Clear
9:35 AM 64.4 °F - 48.2 °F 56% 30.34 in 10.0 mi SE 5.8 mph - N/A   Clear
9:55 AM 64.4 °F - 46.4 °F 52% 30.34 in 10.0 mi SE 6.9 mph - N/A   Clear
10:15 AM 64.4 °F - 46.4 °F 52% 30.34 in 10.0 mi ESE 4.6 mph - N/A   Clear
10:35 AM 66.2 °F - 46.4 °F 49% 30.33 in 10.0 mi ESE 3.5 mph - N/A   Clear
10:55 AM 66.2 °F - 46.4 °F 49% 30.32 in 10.0 mi SSE 6.9 mph - N/A   Clear
11:15 AM 66.2 °F - 46.4 °F 49% 30.32 in 10.0 mi SE 4.6 mph - N/A   Clear
11:35 AM 68.0 °F - 46.4 °F 46% 30.31 in 10.0 mi South 3.5 mph - N/A   Clear
11:55 AM 68.0 °F - 44.6 °F 43% 30.32 in 10.0 mi ENE 5.8 mph - N/A   Clear
12:15 PM 69.8 °F - 48.2 °F 46% 30.32 in 10.0 mi Calm Calm - N/A   Clear
12:35 PM 69.8 °F - 48.2 °F 46% 30.32 in 10.0 mi South 4.6 mph - N/A   Clear
12:55 PM 71.6 °F - 46.4 °F 41% 30.31 in 10.0 mi East 4.6 mph - N/A   Clear
1:15 PM 69.8 °F - 46.4 °F 43% 30.30 in 10.0 mi SSE 3.5 mph - N/A   Clear
1:35 PM 71.6 °F - 48.2 °F 43% 30.29 in 10.0 mi South 4.6 mph - N/A   Clear
1:55 PM 71.6 °F - 46.4 °F 41% 30.28 in 10.0 mi East 3.5 mph - N/A   Clear
2:15 PM 73.4 °F - 48.2 °F 41% 30.27 in 10.0 mi ESE 6.9 mph - N/A   Clear
2:35 PM 73.4 °F - 46.4 °F 38% 30.27 in 10.0 mi East 8.1 mph - N/A   Clear
2:55 PM 73.4 °F - 46.4 °F 38% 30.27 in 10.0 mi East 5.8 mph - N/A   Clear
3:15 PM 73.4 °F - 48.2 °F 41% 30.27 in 10.0 mi SE 4.6 mph - N/A   Clear
3:35 PM 75.2 °F - 46.4 °F 36% 30.26 in 10.0 mi NE 4.6 mph - N/A   Clear
3:55 PM 73.4 °F - 46.4 °F 38% 30.25 in 10.0 mi NE 6.9 mph - N/A   Clear
4:15 PM 75.2 °F - 46.4 °F 36% 30.24 in 10.0 mi East 4.6 mph - N/A   Clear
4:35 PM 75.2 °F - 46.4 °F 36% 30.24 in 10.0 mi East 9.2 mph - N/A   Clear
4:55 PM 73.4 °F - 46.4 °F 38% 30.23 in 10.0 mi East 9.2 mph - N/A   Clear
5:15 PM 75.2 °F - 46.4 °F 36% 30.23 in 10.0 mi SE 3.5 mph - N/A   Clear
5:35 PM 73.4 °F - 46.4 °F 38% 30.22 in 10.0 mi ESE 3.5 mph - N/A   Clear
5:55 PM 73.4 °F - 44.6 °F 36% 30.21 in 10.0 mi ESE 5.8 mph - N/A   Clear
6:15 PM 73.4 °F - 44.6 °F 36% 30.19 in 10.0 mi SSE 5.8 mph - N/A   Clear
6:35 PM 71.6 °F - 46.4 °F 41% 30.19 in 10.0 mi Calm Calm - N/A   Clear
6:55 PM 71.6 °F - 48.2 °F 43% 30.19 in 10.0 mi Calm Calm - N/A   Clear
7:15 PM 68.0 °F - 48.2 °F 49% 30.19 in 10.0 mi Calm Calm - N/A   Clear
7:35 PM 66.2 °F - 50.0 °F 56% 30.18 in 10.0 mi SSE 4.6 mph - N/A   Clear
7:55 PM 66.2 °F - 48.2 °F 52% 30.17 in 10.0 mi South 5.8 mph - N/A   Clear
8:15 PM 66.2 °F - 50.0 °F 56% 30.17 in 10.0 mi SSE 3.5 mph - N/A   Clear
8:35 PM 64.4 °F - 50.0 °F 59% 30.17 in 10.0 mi NE 3.5 mph - N/A   Clear
8:55 PM 62.6 °F - 50.0 °F 63% 30.17 in 10.0 mi Calm Calm - N/A   Clear
9:15 PM 60.8 °F - 51.8 °F 72% 30.17 in 10.0 mi Calm Calm - N/A   Clear
9:35 PM 62.6 °F - 50.0 °F 63% 30.18 in 10.0 mi SE 3.5 mph - N/A   Clear
9:55 PM 60.8 °F - 50.0 °F 68% 30.19 in 10.0 mi SE 3.5 mph - N/A   Clear
10:15 PM 59.0 °F - 50.0 °F 72% 30.19 in 10.0 mi Calm Calm - N/A   Clear
10:35 PM 59.0 °F - 51.8 °F 77% 30.19 in 10.0 mi South 4.6 mph - N/A   Clear
10:55 PM 59.0 °F - 51.8 °F 77% 30.19 in 10.0 mi Calm Calm - N/A   Scattered Clouds
11:15 PM 59.0 °F - 53.6 °F 82% 30.19 in 10.0 mi Calm Calm - N/A   Partly Cloudy
11:35 PM 57.2 °F - 53.6 °F 88% 30.19 in 10.0 mi East 3.5 mph - N/A   Partly Cloudy
11:55 PM 57.2 °F - 51.8 °F 82% 30.19 in 10.0 mi South 5.8 mph - N/A   Mostly Cloudy